SCP
0 0 0 0 0 0 0 0 0 0 0 0 0 0 0 0 0 0 0 0 0 0 0 0 0 0 0 0 0 0 1 0 0 0 0 0 0 1 1 1 2 1 1 1
0 0 0 0 0 0 0 0 0 0 0 0 0 0 0 0 0 0 0 0 0 0 0 0 0 0 0 0 0 0 1 1 0 0 0 0 0 0 1 1 1 1 1 1
0 0 0 0 0 0 0 0 0 0 0 0 0 0 0 0 0 0 0 0 0 0 0 0 0 0 0 0 0 0 1 1 1 0 0 0 0 0 0 1 1 0 0 1
0 0 0 0 0 0 0 0 0 0 0 0 0 0 0 0 0 0 0 0 0 0 0 0 0 0 0 0 0 0 1 1 1 0 0 0 0 0 0 0 0 0 0 0
0 0 0 0 0 0 0 0 0 0 0 0 0 0 0 0 0 0 0 0 0 0 0 0 0 0 0 0 0 0 1 1 1 0 0 0 0 0 0 0 0 0 0 0
0 0 0 0 0 0 0 0 0 0 0 0 0 0 0 0 0 0 0 0 0 0 0 0 0 0 0 0 0 0 0 0 0 0 0 0 0 0 0 0 0 0 0 0
0 0 0 0 0 0 0 0 0 0 0 0 0 0 0 0 0 0 0 0 0 0 0 0 0 0 0 0 0 0 0 0 0 0 0 0 0 0 0 0 0 0 0 0
0 0 0 0 0 0 0 0 0 0 0 0 0 0 0 0 0 0 0 0 0 0 0 0 0 0 0 0 0 0 0 0 0 0 0 0 0 0 0 0 0 0 0 0
0 0 0 0 0 0 0 0 0 0 0 0 0 0 0 0 0 0 0 0 0 0 0 0 0 0 0 0 0 0 0 0 0 0 0 0 0 0 0 0 0 0 0 0
0 0 0 0 0 0 0 0 0 0 0 0 0 0 0 0 0 0 0 0 0 0 0 0 0 0 0 0 0 0 0 0 0 0 0 0 0 0 0 0 0 0 0 0
0 0 0 0 0 0 0 0 0 0 0 0 0 0 0 0 0 0 0 0 0 0 0 0 0 0 0 0 0 0 0 0 0 0 0 0 0 0 0 0 0 0 0 0
0 0 0 0 0 0 0 0 0 0 0 0 0 0 0 0 0 0 0 0 0 0 0 0 0 0 0 0 0 0 0 0 0 0 0 0 0 0 0 0 0 0 0 0
0 0 0 0 0 0 0 0 0 0 0 0 0 0 0 0 0 0 0 0 0 0 0 0 0 0 0 0 0 0 0 0 0 0 0 0 0 0 0 0 0 0 0 0
0 0 0 0 0 0 0 0 0 0 0 0 0 0 0 0 0 0 0 0 0 0 0 0 0 0 0 0 0 0 0 0 0 0 0 0 0 0 0 0 0 0 0 0
0 0 0 0 0 0 0 0 0 0 0 0 0 0 0 0 0 0 0 0 0 0 0 0 0 0 0 0 0 0 0 0 0 0 0 0 0 0 0 0 0 0 0 0
0 0 0 0 0 0 0 0 0 0 0 0 0 0 0 0 0 0 0 0 0 0 0 0 0 0 0 0 0 0 0 0 0 0 0 0 0 0 0 0 0 0 0 0
0 0 0 0 0 0 0 0 0 0 0 0 0 0 0 0 0 0 0 0 0 0 0 0 0 0 0 0 0 0 0 0 0 0 0 0 0 0 0 0 0 0 0 0
0 0 0 0 0 0 0 0 0 0 0 0 0 0 0 0 0 0 0 0 0 0 0 0 0 0 0 0 0 0 0 0 0 0 0 0 0 0 0 0 0 0 0 0
0 0 0 0 0 0 0 0 0 0 0 0 0 0 0 0 0 0 0 0 0 0 0 0 0 0 0 0 0 0 0 0 0 0 0 0 0 0 0 0 0 0 0 0
0 0 0 0 0 0 0 0 0 0 0 0 0 0 0 0 0 0 0 0 0 0 0 0 0 0 0 0 0 0 0 0 0 0 0 0 0 0 0 0 0 0 0 0
0 0 0 0 0 0 0 0 0 0 0 0 0 0 0 0 0 0 0 0 0 0 0 0 0 0 0 0 0 0 0 0 0 0 0 0 0 0 0 0 0 0 0 0
0 0 0 0 0 0 0 0 0 0 0 0 0 0 0 0 0 0 0 0 0 0 0 0 0 0 0 0 0 0 0 0 0 0 0 0 0 0 0 0 0 0 0 0
0 0 0 0 0 0 0 0 0 0 0 0 0 0 0 0 0 0 0 0 0 0 0 0 0 0 0 0 0 0 0 0 0 0 0 0 0 0 0 0 0 0 0 0
0 0 0 0 0 0 0 0 0 0 0 0 0 0 0 0 0 0 0 0 0 0 0 0 0 0 0 0 0 0 0 0 0 0 0 0 0 0 0 0 0 0 0 0
0 0 0 0 0 0 0 0 0 0 0 0 0 0 0 0 0 0 0 0 0 0 0 0 0 0 0 0 0 0 0 0 0 0 0 0 0 0 0 0 0 0 0 0
0 0 0 0 0 0 0 0 0 0 0 0 0 0 0 0 0 0 0 0 0 0 0 0 0 0 0 0 0 0 0 0 0 0 0 0 0 0 0 0 0 0 0 0
Wind_Speed
2 3 4 7 6 3 3 3 4 4 2 1 6 10 12 7 5 7 7 7 7 8 7 4 4 4 3 3 4 4 4 5 4 3 3 2 2 2 2 2 3 3 3 3
3 4 6 2 3 2 2 3 5 4 1 1 5 11 10 7 6 6 7 8 8 6 5 4 3 3 3 4 4 5 5 5 5 4 3 2 2 2 2 2 2 3 3 3
6 3 2 4 3 3 4 5 5 4 4 2 5 10 6 5 4 4 5 6 6 6 6 5 4 4 4 4 5 5 6 5 5 4 2 2 1 1 1 2 2 3 3 3
4 2 2 3 4 5 6 4 4 2 1 4 1 7 9 4 6 6 6 5 6 6 5 5 4 4 4 5 4 4 4 4 4 4 4 4 4 3 3 2 2 2 3 3
4 2 3 4 5 5 4 2 2 1 2 3 2 4 11 3 6 7 6 6 6 5 5 5 4 4 4 3 3 3 3 3 3 4 5 5 3 2 1 1 2 2 2 2
3 1 3 3 1 3 3 4 3 3 2 4 5 5 10 4 6 5 4 5 5 4 4 4 3 2 1 1 2 2 2 2 3 4 4 5 4 3 2 2 2 2 1 2
2 2 1 2 3 2 3 4 2 4 2 7 2 4 11 7 5 5 6 6 5 4 4 3 2 1 1 1 1 2 3 2 3 3 4 4 4 4 4 4 3 2 2 2
3 4 3 2 4 5 4 6 7 6 5 5 2 8 10 5 4 4 5 5 4 3 3 3 3 3 2 1 1 2 3 3 3 3 3 3 3 2 2 3 2 3 3 3
5 4 0 1 1 5 4 4 3 4 1 3 6 7 10 4 4 4 4 4 4 4 4 3 3 2 2 2 2 2 3 2 3 3 3 2 2 2 2 2 2 2 2 2
4 2 1 1 1 1 3 5 3 4 4 5 6 6 6 5 5 4 5 5 5 4 3 3 2 2 2 2 1 1 2 2 2 2 3 2 2 2 2 1 2 2 2 2
3 4 1 1 4 5 3 3 3 3 4 5 5 8 5 5 4 3 4 4 5 4 3 3 2 2 1 1 1 1 1 1 1 2 2 2 2 1 1 2 2 2 2 2
3 3 3 5 3 2 4 5 6 5 6 4 4 9 3 3 3 3 4 4 4 3 3 2 2 1 1 1 1 1 2 2 2 2 2 2 2 2 2 2 2 2 2 2
4 4 1 3 2 1 3 4 5 3 3 4 6 10 2 1 3 4 4 4 4 4 3 3 2 2 2 2 2 2 2 2 2 1 2 2 2 2 3 3 2 2 2 2
3 3 6 8 5 4 4 4 4 5 5 6 10 10 8 7 6 6 6 5 4 3 3 3 3 3 2 2 2 2 2 2 2 2 2 2 3 3 3 3 3 3 2 2
3 3 4 5 3 3 6 7 8 9 9 9 10 11 13 9 7 7 6 5 4 4 4 3 3 3 3 2 2 2 2 2 2 2 2 3 2 2 2 2 3 2 2 3
3 3 2 4 4 4 8 10 11 12 10 11 12 16 11 8 6 6 6 5 5 5 5 4 4 4 3 3 3 2 3 2 1 2 3 2 2 2 2 2 2 2 2 2
3 4 3 5 4 3 11 12 13 10 10 10 14 14 6 5 6 7 6 6 6 5 5 5 5 4 4 4 3 3 3 2 1 2 2 2 2 2 2 2 2 2 2 2
6 4 3 2 0 10 9 2 7 10 10 10 9 9 6 7 7 5 4 5 5 5 5 5 4 4 4 3 2 2 1 1 1 2 2 2 2 2 2 2 3 3 2 2
5 6 4 3 5 10 9 4 5 7 8 8 11 12 8 6 4 5 4 3 4 4 4 4 3 3 3 2 2 1 1 1 1 2 2 2 2 2 2 3 3 3 3 3
2 4 4 4 5 10 8 2 3 3 7 5 8 9 5 1 3 6 3 2 2 3 2 2 2 2 2 2 1 0 1 1 2 3 3 2 2 2 3 3 3 3 3 4
3 3 6 7 8 11 7 2 4 5 7 2 4 5 4 5 6 5 3 2 2 2 2 2 1 1 2 2 0 1 1 2 3 2 2 2 2 3 3 3 3 3 3 3
9 7 7 6 7 12 4 6 8 6 2 1 2 3 4 5 4 3 3 3 3 3 3 2 2 2 2 1 0 1 2 3 2 2 2 3 3 2 2 3 3 3 3 3
9 9 8 10 10 5 5 7 5 2 2 3 3 3 3 3 4 3 3 3 3 2 2 2 2 2 3 2 1 2 3 3 2 2 3 3 3 3 2 2 3 3 3 3
5 3 4 6 9 6 5 4 3 3 4 4 3 3 2 3 4 4 3 3 3 3 2 2 2 2 3 3 3 2 3 3 2 2 3 3 3 3 3 3 3 3 3 3
6 5 4 7 7 5 5 4 4 4 3 3 3 2 3 3 4 4 3 3 3 3 2 2 2 2 3 3 3 4 3 2 2 3 3 3 2 3 3 3 3 4 4 4
5 7 7 8 5 5 6 4 4 4 4 3 3 3 2 2 3 3 3 2 2 2 3 2 2 3 3 3 4 4 3 2 2 2 3 2 2 2 2 3 4 5 5 7
Wind_Direction
79 97 208 214 202 193 166 195 251 260 279 244 252 268 277 281 265 266 268 265 263 259 262 257 239 228 213 208 204 201 200 195 174 173 177 181 204 207 204 191 189 187 187 184
76 238 235 192 176 176 190 234 262 286 319 254 284 279 272 263 250 249 255 258 259 267 278 269 250 222 214 213 211 206 205 196 186 184 181 178 178 205 201 191 191 192 190 189
182 230 185 159 164 184 222 218 236 263 329 335 320 298 277 275 257 263 257 255 258 249 256 260 250 233 221 218 211 207 201 193 188 173 147 123 119 121 178 198 205 208 197 193
219 258 153 166 198 182 238 219 214 235 294 293 3 295 290 284 291 280 272 268 265 260 253 251 244 243 229 224 211 204 195 184 179 168 172 178 190 202 209 205 210 216 206 204
226 200 175 199 210 180 207 137 160 186 190 288 259 248 283 306 284 277 267 264 266 262 252 251 245 239 235 218 200 194 181 175 176 178 182 188 200 203 188 178 196 212 219 215
235 212 196 209 191 171 146 86 65 55 84 270 231 206 278 252 251 282 285 275 274 274 265 261 259 248 246 214 182 163 165 181 183 182 184 190 192 183 182 210 213 216 222 227
263 239 222 145 110 88 131 114 34 350 334 250 202 213 254 254 251 255 276 288 287 269 257 262 265 259 257 238 183 171 176 193 186 182 190 196 198 194 203 210 216 218 219 230
194 254 215 185 180 176 188 164 172 201 230 272 226 233 255 263 277 274 276 284 296 284 269 266 257 242 236 227 193 189 191 199 191 189 200 203 198 198 215 218 218 221 227 232
183 234 1 169 185 152 158 197 181 144 151 275 260 271 292 297 306 310 309 311 303 296 288 282 275 259 245 231 217 204 199 202 198 197 197 196 195 203 217 221 217 218 231 236
162 209 271 291 77 22 170 156 134 157 189 250 272 259 259 289 292 309 312 306 300 301 301 301 295 283 268 244 233 208 199 210 206 195 199 204 206 207 207 211 227 226 230 227
156 163 252 175 193 195 156 166 173 165 183 195 255 262 228 231 244 267 287 301 302 297 293 294 301 303 298 302 209 209 212 208 214 210 208 204 215 212 205 225 235 231 234 227
170 143 223 232 219 203 194 191 172 186 226 217 234 266 270 234 245 251 278 303 311 315 319 313 302 305 291 257 241 224 228 227 228 225 216 207 211 201 209 233 241 233 228 227
153 139 121 322 307 252 226 213 202 183 166 196 217 261 293 315 292 280 283 296 308 317 327 329 321 299 280 266 253 239 237 238 238 219 214 211 214 214 224 235 238 229 223 226
139 164 192 212 227 196 221 222 194 175 203 225 230 254 279 287 288 293 289 285 289 292 296 300 294 282 279 277 271 261 258 251 243 227 217 228 236 234 230 231 234 231 225 228
130 205 232 251 259 219 232 228 210 213 216 223 244 245 258 262 268 276 276 283 291 293 293 282 277 276 270 274 279 279 277 270 242 228 236 248 256 256 252 245 243 239 235 238
139 187 219 274 275 252 258 243 224 231 234 240 258 263 261 264 266 270 271 271 274 280 285 286 283 283 277 268 268 273 272 271 245 233 251 268 269 267 264 260 253 249 252 256
170 156 181 261 293 325 263 229 211 215 215 210 236 252 270 272 265 260 262 261 263 271 280 282 280 272 272 268 258 255 263 274 254 254 276 286 279 279 282 277 266 256 259 264
170 161 177 228 96 241 248 214 202 216 232 221 241 259 261 259 269 268 261 254 266 276 280 279 276 276 281 281 277 268 272 261 260 277 288 297 301 295 300 295 282 279 274 262
183 167 168 180 233 270 287 252 188 204 252 225 236 255 265 280 296 284 272 246 250 264 270 272 276 281 290 291 283 274 288 280 274 283 288 295 298 296 297 289 287 293 288 282
163 163 168 182 212 243 253 236 185 150 268 235 221 245 259 273 268 274 292 303 295 295 292 292 304 321 323 319 318 235 272 277 274 282 289 297 295 286 284 285 292 295 287 285
161 181 197 208 233 257 253 199 136 184 252 263 213 228 226 222 240 271 310 321 312 313 313 318 337 335 312 316 354 271 282 280 293 308 310 306 294 283 282 286 292 292 291 291
179 181 198 187 223 250 212 149 186 225 278 278 243 232 230 246 268 289 309 308 316 328 334 339 346 335 335 342 33 298 295 310 327 324 314 306 302 298 299 294 298 297 288 286
203 197 192 199 220 240 179 196 219 219 246 260 254 269 252 262 277 286 291 301 310 317 326 337 338 334 343 352 5 307 316 332 331 324 310 308 310 307 306 298 297 299 290 280
236 211 201 243 256 252 240 240 261 251 246 259 260 264 254 262 279 292 296 305 314 320 328 340 342 333 332 344 351 336 336 342 332 308 307 310 312 315 319 309 294 286 281 281
213 182 205 245 263 289 264 242 253 265 270 282 288 271 254 256 278 281 284 293 307 320 333 345 334 318 320 338 342 343 344 343 329 314 308 309 309 307 307 301 287 282 272 270
197 191 202 235 232 230 258 268 255 247 257 256 264 284 282 253 263 279 283 295 311 321 332 333 330 324 323 332 334 338 340 338 327 317 310 305 302 299 295 299 307 302 295 298